Michigan City, IN

5:07 AM CDT on September 28, 2016 (GMT -0500)
Michigan City Municipal

Weather History for KMGC - February, 2014

Change the Weather History Date:

Saturday, February 8, 2014

  Actual Average (KVPZ) Record (KVPZ)
Temperature  
Mean Temperature 11 °F 26 °F  
Max Temperature 17 °F 33 °F 50 °F (2001)
Min Temperature 5 °F 18 °F -8 °F (2007)
Degree Days  
Heating Degree Days 54 39  
Month to date heating degree days 321  
Since 1 July heating degree days 4006  
Cooling Degree Days 0 0  
Month to date cooling degree days 0  
Year to date cooling degree days 0  
Moisture  
Dew Point 5 °F    
Average Humidity 72    
Maximum Humidity 86    
Minimum Humidity 57    
Precipitation  
Precipitation 0.00 in 0.05 in 0.42 in (2001)
Month to date precipitation 0.37  
Year to date precipitation 2.12  
Sea Level Pressure  
Sea Level Pressure 30.23 in    
Wind  
Wind Speed 3 mph (South)    
Max Wind Speed 8 mph    
Max Gust Speed -    
Visibility 7 miles    
Events Snow    
T = Trace of Precipitation, MM = Missing Value Source: NWS Daily Summary

Daily Weather History Graph

Daily Weather History Graph

Search for Another Location

Airport or City:

Trip Planner

Search our weather history database for the weather conditions in past years. The results will help you decide how hot, cold, wet, or windy it might be!

Date:

Astronomy

Feb. 08, 2014 Rise Set
Actual Time 6:51 AM CST 5:11 PM CST
Civil Twilight 6:22 AM CST 5:40 PM CST
Nautical Twilight 5:49 AM CST 6:13 PM CST
Astronomical Twilight 5:17 AM CST 6:46 PM CST
Moon 12:04 PM CST (2/8) 2:04 AM CST (2/8)
Length of Visible Light 11h 18m
Length of Day
10h 20m
Waxing Gibbous, 69% of the Moon is Illuminated
Feb 8
Waxing Gibbous
Feb 14
Full
Feb 22
Last Quarter
Mar 1
New
Mar 8
First Quarter

Hourly Weather History & Observations

Time (CST) Temp. Windchill Dew Point Humidity Pressure Visibility Wind Dir Wind Speed Gust Speed Precip Events Conditions
12:15 AM 6.8 °F -2.0 °F -4.0 °F 61% 30.34 in 10.0 mi SSW 4.6 mph - N/A   Clear
12:35 AM 6.8 °F -2.0 °F -4.0 °F 61% 30.33 in 10.0 mi SSW 4.6 mph - N/A   Clear
12:55 AM 5.0 °F -5.6 °F -4.0 °F 66% 30.33 in 10.0 mi SSW 5.8 mph - N/A   Clear
1:15 AM 5.0 °F -5.6 °F -4.0 °F 66% 30.34 in 10.0 mi SW 5.8 mph - N/A   Clear
1:35 AM 5.0 °F -5.6 °F -4.0 °F 66% 30.34 in 10.0 mi SW 5.8 mph - N/A   Clear
1:55 AM 5.0 °F -2.1 °F -4.0 °F 66% 30.33 in 10.0 mi SW 3.5 mph - N/A   Clear
2:15 AM 5.0 °F -4.1 °F -4.0 °F 66% 30.33 in 10.0 mi SW 4.6 mph - N/A   Clear
2:35 AM 5.0 °F -2.1 °F -4.0 °F 66% 30.32 in 10.0 mi SSW 3.5 mph - N/A   Clear
2:55 AM 5.0 °F - -4.0 °F 66% 30.32 in 10.0 mi Calm Calm - N/A   Scattered Clouds
3:15 AM 5.0 °F -2.1 °F -4.0 °F 66% 30.32 in 10.0 mi SW 3.5 mph - N/A   Mostly Cloudy
3:35 AM 5.0 °F - -4.0 °F 66% 30.31 in 10.0 mi Calm Calm - N/A   Overcast
3:55 AM 5.0 °F -2.1 °F -4.0 °F 66% 30.31 in 10.0 mi SSW 3.5 mph - N/A   Overcast
4:15 AM 5.0 °F - -4.0 °F 66% 30.31 in 10.0 mi Calm Calm - N/A   Overcast
4:35 AM 6.8 °F - -4.0 °F 61% 30.31 in 10.0 mi Calm Calm - N/A   Overcast
4:55 AM 6.8 °F -0.1 °F -2.2 °F 67% 30.30 in 10.0 mi SSW 3.5 mph - N/A   Overcast
5:15 AM 8.6 °F - -2.2 °F 62% 30.30 in 10.0 mi Calm Calm - N/A   Overcast
5:35 AM 8.6 °F - -2.2 °F 62% 30.30 in 10.0 mi Calm Calm - N/A Snow Light Snow
5:55 AM 8.6 °F 2.0 °F -2.2 °F 62% 30.30 in 10.0 mi SSW 3.5 mph - N/A   Overcast
6:15 AM 8.6 °F 0.1 °F -2.2 °F 62% 30.29 in 10.0 mi South 4.6 mph - N/A   Overcast
6:35 AM 8.6 °F 0.1 °F -4.0 °F 57% 30.29 in 10.0 mi South 4.6 mph - N/A   Overcast
6:55 AM 8.6 °F - -2.2 °F 62% 30.29 in 10.0 mi Calm Calm - N/A   Overcast
7:15 AM 8.6 °F - -2.2 °F 62% 30.29 in 10.0 mi Calm Calm - N/A   Overcast
7:35 AM 8.6 °F - -0.4 °F 67% 30.29 in 10.0 mi Calm Calm - N/A   Overcast
7:55 AM 8.6 °F - -0.4 °F 67% 30.29 in 10.0 mi Calm Calm - N/A   Overcast
8:15 AM 8.6 °F 2.0 °F -0.4 °F 67% 30.30 in 10.0 mi SSW 3.5 mph - N/A   Overcast
8:35 AM 10.4 °F 4.0 °F -0.4 °F 62% 30.29 in 10.0 mi SSW 3.5 mph - N/A   Overcast
8:55 AM 10.4 °F 2.2 °F -0.4 °F 62% 30.29 in 7.0 mi SSW 4.6 mph - N/A Snow Light Snow
9:15 AM 10.4 °F 4.0 °F 1.4 °F 67% 30.28 in 5.0 mi SE 3.5 mph - N/A Snow Light Snow
9:35 AM 12.2 °F - 1.4 °F 62% 30.28 in 7.0 mi Calm Calm - N/A Snow Light Snow
9:55 AM 12.2 °F 4.3 °F 3.2 °F 67% 30.28 in 7.0 mi SSE 4.6 mph - N/A Snow Light Snow
10:15 AM 12.2 °F 4.3 °F 3.2 °F 67% 30.28 in 5.0 mi SE 4.6 mph - N/A Snow Light Snow
10:35 AM 12.2 °F 1.7 °F 3.2 °F 67% 30.27 in 7.0 mi SE 6.9 mph - N/A Snow Light Snow
10:55 AM 12.2 °F 2.9 °F 3.2 °F 67% 30.27 in 4.0 mi SSE 5.8 mph - N/A Snow Light Snow
11:15 AM 14.0 °F 5.1 °F 3.2 °F 62% 30.26 in 5.0 mi South 5.8 mph - N/A Snow Light Snow
11:35 AM 14.0 °F 5.1 °F 5.0 °F 67% 30.26 in 4.0 mi South 5.8 mph - N/A Snow Light Snow
11:55 AM 14.0 °F 6.5 °F 5.0 °F 67% 30.24 in 5.0 mi SE 4.6 mph - N/A Snow Light Snow
12:15 PM 14.0 °F 6.5 °F 5.0 °F 67% 30.23 in 3.0 mi South 4.6 mph - N/A Snow Light Snow
12:35 PM 14.0 °F 8.2 °F 5.0 °F 67% 30.21 in 3.0 mi SSE 3.5 mph - N/A Snow Light Snow
12:55 PM 14.0 °F 2.9 °F 6.8 °F 73% 30.21 in 4.0 mi South 8.1 mph - N/A Snow Light Snow
1:15 PM 14.0 °F 3.9 °F 6.8 °F 73% 30.20 in 4.0 mi South 6.9 mph - N/A Snow Light Snow
1:35 PM 14.0 °F 8.2 °F 8.6 °F 79% 30.17 in 1.0 mi SE 3.5 mph - N/A Snow Light Snow
1:55 PM 14.0 °F 8.2 °F 8.6 °F 79% 30.18 in 1.5 mi South 3.5 mph - N/A Snow Light Snow
2:15 PM 14.0 °F - 10.4 °F 86% 30.18 in 0.8 mi Calm Calm - N/A Snow Light Snow
2:35 PM 15.8 °F 7.2 °F 10.4 °F 79% 30.17 in 1.2 mi South 5.8 mph - N/A Snow Light Snow
2:55 PM 17.6 °F 10.7 °F 10.4 °F 73% 30.17 in 1.0 mi SSE 4.6 mph - N/A Snow Light Snow
3:15 PM 15.8 °F 8.6 °F 10.4 °F 79% 30.16 in 2.0 mi South 4.6 mph - N/A Snow Light Snow
3:35 PM 15.8 °F 10.2 °F 10.4 °F 79% 30.17 in 1.2 mi SE 3.5 mph - N/A Snow Light Snow
3:55 PM 15.8 °F - 10.4 °F 79% 30.17 in 1.2 mi Calm Calm - N/A Snow Light Snow
4:15 PM 15.8 °F - 12.2 °F 86% 30.17 in 1.0 mi Calm Calm - N/A Snow Light Snow
4:35 PM 15.8 °F - 10.4 °F 79% 30.17 in 1.8 mi Calm Calm - N/A Snow Light Snow
4:55 PM 17.6 °F - 10.4 °F 73% 30.17 in 2.5 mi Calm Calm - N/A Snow Light Snow
5:15 PM 15.8 °F 10.2 °F 10.4 °F 79% 30.17 in 3.0 mi SSE 3.5 mph - N/A Snow Light Snow
5:35 PM 15.8 °F - 10.4 °F 79% 30.17 in 7.0 mi Calm Calm - N/A Snow Light Snow
5:55 PM 15.8 °F - 10.4 °F 79% 30.17 in 4.0 mi Calm Calm - N/A Snow Light Snow
6:15 PM 15.8 °F 10.2 °F 10.4 °F 79% 30.17 in 3.0 mi SSE 3.5 mph - N/A Snow Light Snow
6:35 PM 15.8 °F - 10.4 °F 79% 30.17 in 3.0 mi Calm Calm - N/A Snow Light Snow
6:55 PM 15.8 °F - 10.4 °F 79% 30.17 in 4.0 mi Calm Calm - N/A Snow Light Snow
7:15 PM 15.8 °F - 10.4 °F 79% 30.16 in 3.0 mi Calm Calm - N/A Snow Light Snow
7:35 PM 15.8 °F - 10.4 °F 79% 30.16 in 5.0 mi Calm Calm - N/A Snow Light Snow
7:55 PM 15.8 °F - 10.4 °F 79% 30.17 in 7.0 mi Calm Calm - N/A Snow Light Snow
8:15 PM 15.8 °F 10.2 °F 10.4 °F 79% 30.16 in 7.0 mi SSE 3.5 mph - N/A Snow Light Snow
8:35 PM 15.8 °F - 12.2 °F 86% 30.15 in 5.0 mi Calm Calm - N/A Snow Light Snow
8:55 PM 15.8 °F 10.2 °F 12.2 °F 86% 30.14 in 7.0 mi SSE 3.5 mph - N/A Snow Light Snow
9:15 PM 15.8 °F - 12.2 °F 86% 30.14 in 7.0 mi Calm Calm - N/A Snow Light Snow
9:35 PM 15.8 °F 10.2 °F 12.2 °F 86% 30.15 in 7.0 mi South 3.5 mph - N/A Snow Light Snow
9:55 PM 15.8 °F - 12.2 °F 86% 30.15 in 7.0 mi Calm Calm - N/A Snow Light Snow
10:15 PM 15.8 °F - 12.2 °F 86% 30.14 in 10.0 mi Calm Calm - N/A Snow Light Snow
10:35 PM 15.8 °F 10.2 °F 12.2 °F 86% 30.14 in 7.0 mi South 3.5 mph - N/A Snow Light Snow
10:55 PM 15.8 °F - 12.2 °F 86% 30.14 in 7.0 mi Calm Calm - N/A Snow Light Snow
11:15 PM 15.8 °F 10.2 °F 12.2 °F 86% 30.13 in 10.0 mi South 3.5 mph - N/A Snow Light Snow
11:35 PM 15.8 °F - 12.2 °F 86% 30.13 in 10.0 mi Calm Calm - N/A Snow Light Snow
11:55 PM 15.8 °F 10.2 °F 12.2 °F 86% 30.13 in 10.0 mi SSW 3.5 mph - N/A Snow Light Snow